TimeEDT,TemperatureF,Dew PointF,Humidity,Sea Level PressureIn,VisibilityMPH,Wind Direction,Wind SpeedMPH,Gust SpeedMPH,PrecipitationIn,Events,Conditions,WindDirDegrees,DateUTC
12:14 AM,30.6,29.3,95,30.33,10.0,Calm,Calm,-,N/A,,Clear,0,2012-10-13 04:14:00
12:35 AM,30.0,28.6,94,30.32,10.0,Calm,Calm,-,N/A,,Clear,0,2012-10-13 04:35:00
12:55 AM,29.3,28.4,96,30.31,10.0,Calm,Calm,-,N/A,,Clear,0,2012-10-13 04:55:00
1:14 AM,29.3,28.4,96,30.30,10.0,Calm,Calm,-,N/A,,Clear,0,2012-10-13 05:14:00
1:55 AM,28.8,27.5,95,30.30,10.0,Calm,Calm,-,N/A,,Clear,0,2012-10-13 05:55:00
2:14 AM,29.1,28.0,96,30.29,10.0,Calm,Calm,-,N/A,,Clear,0,2012-10-13 06:14:00
2:35 AM,28.9,27.9,96,30.28,10.0,Calm,Calm,-,N/A,,Clear,0,2012-10-13 06:35:00
2:55 AM,28.0,27.0,96,30.27,10.0,Calm,Calm,-,N/A,,Clear,0,2012-10-13 06:55:00
3:15 AM,28.0,27.0,96,30.26,10.0,Calm,Calm,-,N/A,,Clear,0,2012-10-13 07:15:00
3:35 AM,27.7,26.6,96,30.26,10.0,Calm,Calm,-,N/A,,Clear,0,2012-10-13 07:35:00
3:54 AM,28.0,27.0,96,30.25,10.0,Calm,Calm,-,N/A,,Clear,0,2012-10-13 07:54:00
4:15 AM,28.4,27.5,96,30.25,10.0,Calm,Calm,-,N/A,,Clear,0,2012-10-13 08:15:00
4:35 AM,28.4,27.5,96,30.25,10.0,Calm,Calm,-,N/A,,Clear,0,2012-10-13 08:35:00
4:54 AM,28.4,27.5,96,30.24,10.0,Calm,Calm,-,N/A,,Clear,0,2012-10-13 08:54:00
5:15 AM,29.8,28.9,96,30.23,10.0,Calm,Calm,-,N/A,,Scattered Clouds,0,2012-10-13 09:15:00
5:35 AM,30.6,29.5,96,30.23,10.0,Calm,Calm,-,N/A,,Clear,0,2012-10-13 09:35:00
5:54 AM,32.4,31.8,98,30.22,10.0,SSE,3.5,-,N/A,,Clear,150,2012-10-13 09:54:00
6:15 AM,34.7,28.9,79,30.23,10.0,South,3.5,-,N/A,,Clear,170,2012-10-13 10:15:00
6:54 AM,34.2,32.5,94,30.22,10.0,Calm,Calm,-,N/A,Snow,Light Snow,0,2012-10-13 10:54:00
7:15 AM,34.2,32.7,94,30.21,7.0,SSE,3.5,-,N/A,Snow,Light Snow,160,2012-10-13 11:15:00
7:35 AM,35.2,34.0,95,30.19,4.0,SSE,4.6,-,N/A,Snow,Light Snow,150,2012-10-13 11:35:00
7:55 AM,36.9,34.7,92,30.21,4.0,Calm,Calm,-,N/A,Snow,Light Snow,0,2012-10-13 11:55:00
8:15 AM,36.9,35.1,93,30.22,3.0,South,6.9,-,N/A,Snow,Light Snow,180,2012-10-13 12:15:00
8:34 AM,37.4,36.0,95,30.19,2.0,SSE,8.1,-,N/A,Snow,Light Snow,150,2012-10-13 12:34:00
8:55 AM,38.1,36.5,94,30.19,3.0,SSE,9.2,-,N/A,Snow,Light Snow,160,2012-10-13 12:55:00
9:15 AM,38.5,36.9,94,30.18,4.0,SSE,8.1,-,N/A,,Unknown,160,2012-10-13 13:15:00
9:55 AM,39.4,37.8,94,30.14,10.0,South,10.4,-,N/A,Rain,Light Rain,170,2012-10-13 13:55:00
10:34 AM,40.6,39.2,95,30.13,10.0,SSE,6.9,-,N/A,Rain,Light Rain,160,2012-10-13 14:34:00
10:55 AM,41.2,39.7,95,30.11,7.0,SSE,8.1,-,N/A,Rain,Light Rain,160,2012-10-13 14:55:00
11:34 AM,41.4,40.1,95,30.09,10.0,South,9.2,-,N/A,,Light Drizzle,170,2012-10-13 15:34:00
11:55 AM,41.7,40.5,95,30.06,1.8,SSE,8.1,-,N/A,,Unknown,150,2012-10-13 15:55:00
12:15 PM,41.9,41.0,97,30.05,3.0,SE,5.8,-,N/A,,Overcast,130,2012-10-13 16:15:00
12:34 PM,42.1,41.4,97,30.02,2.5,SSE,5.8,-,N/A,,Unknown,150,2012-10-13 16:34:00
12:55 PM,43.0,42.3,97,30.00,1.0,SSE,6.9,-,N/A,,Unknown,150,2012-10-13 16:55:00
1:34 PM,44.6,43.9,97,29.98,3.0,SSE,5.8,-,N/A,Rain,Light Rain,150,2012-10-13 17:34:00
2:15 PM,45.5,44.8,97,29.96,7.0,SSE,5.8,-,N/A,Rain,Light Rain,160,2012-10-13 18:15:00
2:35 PM,46.2,45.3,97,29.94,7.0,SSE,5.8,-,N/A,Rain,Light Rain,150,2012-10-13 18:35:00
2:55 PM,46.9,45.5,95,29.92,10.0,SSE,8.1,-,N/A,,Overcast,160,2012-10-13 18:55:00
3:14 PM,46.9,45.5,95,29.91,7.0,SSE,8.1,-,N/A,,Overcast,160,2012-10-13 19:14:00
3:35 PM,46.9,45.5,95,29.89,5.0,SSE,9.2,-,N/A,,Overcast,160,2012-10-13 19:35:00
3:55 PM,47.1,46.0,96,29.89,1.5,SSE,9.2,-,N/A,,Overcast,160,2012-10-13 19:55:00
4:35 PM,47.8,46.6,95,29.88,5.0,South,5.8,-,N/A,Rain,Light Rain,170,2012-10-13 20:35:00
4:55 PM,48.2,46.9,95,29.87,10.0,South,6.9,-,N/A,,Light Drizzle,170,2012-10-13 20:55:00
5:15 PM,48.2,47.3,97,29.86,7.0,South,6.9,18.4,N/A,,Overcast,170,2012-10-13 21:15:00
5:35 PM,48.7,47.8,97,29.86,5.0,SSE,5.8,-,N/A,,Overcast,160,2012-10-13 21:35:00
5:54 PM,49.3,48.6,97,29.85,5.0,SSE,5.8,-,N/A,,Overcast,160,2012-10-13 21:54:00
6:15 PM,50.0,49.1,97,29.83,4.0,SSE,8.1,-,N/A,Rain,Rain,150,2012-10-13 22:15:00
6:35 PM,50.2,49.5,97,29.84,3.0,SSE,6.9,-,N/A,Rain,Light Rain,150,2012-10-13 22:35:00
6:54 PM,50.2,49.5,97,29.82,3.0,SSE,4.6,-,N/A,Rain,Rain,150,2012-10-13 22:54:00
7:15 PM,50.2,49.6,98,29.82,3.0,SSE,5.8,-,N/A,,Overcast,160,2012-10-13 23:15:00
7:35 PM,50.9,50.2,97,29.81,2.0,SSE,5.8,-,N/A,,Overcast,160,2012-10-13 23:35:00
8:35 PM,51.1,50.5,98,29.80,0.8,South,3.5,-,N/A,,Overcast,170,2012-10-14 00:35:00
8:54 PM,51.1,50.5,98,29.81,0.8,South,5.8,-,N/A,,Overcast,190,2012-10-14 00:54:00
9:35 PM,51.1,50.9,99,29.81,1.0,South,3.5,-,N/A,Rain,Light Rain,170,2012-10-14 01:35:00
10:15 PM,52.3,52.0,99,29.80,1.8,South,6.9,-,N/A,,Drizzle,180,2012-10-14 02:15:00
10:35 PM,53.6,53.2,99,29.80,2.0,South,4.6,-,N/A,,Drizzle,190,2012-10-14 02:35:00
10:54 PM,57.0,56.5,98,29.80,2.5,SW,6.9,-,N/A,,Drizzle,230,2012-10-14 02:54:00
11:15 PM,59.2,59.0,99,29.80,2.5,SW,6.9,-,N/A,,Drizzle,230,2012-10-14 03:15:00